Date,TemperatureHighF,TemperatureAvgF,TemperatureLowF,DewpointHighF,DewpointAvgF,DewpointLowF,HumidityHigh,HumidityAvg,HumidityLow,PressureMaxIn,PressureMinIn,WindSpeedMaxMPH,WindSpeedAvgMPH,GustSpeedMaxMPH,PrecipitationSumIn
2013-1-1,10,4,-3,-100,-100,-100,0,0,100,0.00,40.00,0,-999,0,0.00
2013-1-2,11,5,-3,-100,-100,-100,0,0,100,0.00,40.00,0,-999,0,0.00
2013-1-3,8,2,-7,-100,-100,-100,0,0,100,0.00,40.00,0,-999,0,0.00
2013-1-4,27,14,6,-100,-100,-100,0,0,100,0.00,40.00,0,-999,0,0.00
2013-1-5,25,13,4,-100,-100,-100,0,0,100,0.00,40.00,0,-999,0,0.00
2013-1-6,34,19,9,-100,-100,-100,0,0,100,0.00,40.00,0,-999,0,0.00
2013-1-7,29,18,11,-100,-100,-100,0,0,100,0.00,40.00,0,-999,0,0.00
2013-1-8,28,20,14,-100,-100,-100,0,0,100,0.00,40.00,0,-999,0,0.00
2013-1-9,39,23,13,-100,-100,-100,0,0,100,0.00,40.00,0,-999,0,0.00
2013-1-10,35,26,18,-100,-100,-100,0,0,100,0.00,40.00,0,-999,0,0.00
2013-1-11,23,11,-1,-100,-100,-100,0,0,100,0.00,40.00,0,-999,0,0.01
2013-1-12,5,-5,-14,-100,-100,-100,0,0,100,0.00,40.00,0,-999,0,0.01
2013-1-13,3,-7,-15,-100,-100,-100,0,0,100,0.00,40.00,0,-999,0,0.00
2013-1-14,2,-11,-18,-100,-100,-100,0,0,100,0.00,40.00,0,-999,0,0.00
2013-1-15,5,-5,-18,-100,-100,-100,0,0,100,0.00,40.00,0,-999,0,0.00
2013-1-16,26,16,8,-100,-100,-100,0,0,100,0.00,40.00,0,-999,0,0.00
2013-1-17,30,17,9,-100,-100,-100,0,0,100,0.00,40.00,0,-999,0,0.00
2013-1-18,31,18,11,-100,-100,-100,0,0,100,0.00,40.00,0,-999,0,0.00
2013-1-19,33,18,11,-100,-100,-100,0,0,100,0.00,40.00,0,-999,0,0.00
2013-1-20,31,21,15,-100,-100,-100,0,0,100,0.00,40.00,0,-999,0,0.00
2013-1-21,31,18,10,-100,-100,-100,0,0,100,0.00,40.00,0,-999,0,0.00
2013-1-22,39,25,16,-100,-100,-100,0,0,100,0.00,40.00,0,-999,0,0.00
2013-1-23,45,28,19,-100,-100,-100,0,0,100,0.00,40.00,0,-999,0,0.00
2013-1-24,40,32,26,-100,-100,-100,0,0,100,0.00,40.00,0,-999,0,0.00
2013-1-25,35,30,27,-100,-100,-100,0,0,100,0.00,40.00,0,-999,0,0.00
2013-1-26,39,31,24,-100,-100,-100,0,0,100,0.00,40.00,0,-999,0,0.00
2013-1-27,33,28,20,-100,-100,-100,0,0,100,0.00,40.00,0,-999,0,0.00
2013-1-28,29,22,10,-100,-100,-100,0,0,100,0.00,40.00,0,-999,0,0.01
2013-1-29,9,4,1,-100,-100,-100,0,0,100,0.00,40.00,0,-999,0,0.01
2013-1-30,15,6,1,-100,-100,-100,0,0,100,0.00,40.00,0,-999,0,0.01
2013-1-31,22,19,16,-100,-100,-100,0,0,100,0.00,40.00,0,-999,0,0.01
2013-2-1,21,19,16,-100,-100,-100,0,0,100,0.00,40.00,0,-999,0,0.01
2013-2-2,30,19,7,-100,-100,-100,0,0,100,0.00,40.00,0,-999,0,0.01
2013-2-3,29,19,11,-100,-100,-100,0,0,100,0.00,40.00,0,-999,0,0.00
2013-2-4,29,19,9,-100,-100,-100,0,0,100,0.00,40.00,0,-999,0,0.00
2013-2-5,36,26,13,-100,-100,-100,0,0,100,0.00,40.00,0,-999,0,0.00
2013-2-6,32,24,18,-100,-100,-100,0,0,100,0.00,40.00,0,-999,0,0.00
2013-2-7,29,16,3,-100,-100,-100,0,0,100,0.00,40.00,0,-999,0,0.00
2013-2-8,35,23,11,-100,-100,-100,0,0,100,0.00,40.00,0,-999,0,0.00
2013-2-9,26,19,12,-100,-100,-100,0,0,100,0.00,40.00,0,-999,0,0.01
2013-2-10,18,11,5,-100,-100,-100,0,0,100,0.00,40.00,0,-999,0,0.01
2013-2-11,21,12,3,-100,-100,-100,0,0,100,0.00,40.00,0,-999,0,0.00
2013-2-12,16,4,-7,-100,-100,-100,0,0,100,0.00,40.00,0,-999,0,0.00
2013-2-13,19,13,6,-100,-100,-100,0,0,100,0.00,40.00,0,-999,0,0.00
2013-2-14,19,15,13,-100,-100,-100,0,0,100,0.00,40.00,0,-999,0,0.01
2013-2-15,15,13,11,-100,-100,-100,0,0,100,0.00,40.00,0,-999,0,0.01
2013-2-16,27,17,9,-100,-100,-100,0,0,100,0.00,40.00,0,-999,0,0.01
2013-2-17,34,21,10,-100,-100,-100,0,0,100,0.00,40.00,0,-999,0,0.00
2013-2-18,16,10,2,-100,-100,-100,0,0,100,0.00,40.00,0,-999,0,0.01
2013-2-19,35,20,3,-100,-100,-100,0,0,100,0.00,40.00,0,-999,0,0.00
2013-2-20,29,22,15,-100,-100,-100,0,0,100,0.00,40.00,0,-999,0,0.00
2013-2-21,20,14,10,-100,-100,-100,0,0,100,0.00,40.00,0,-999,0,0.01
2013-2-22,20,11,2,-100,-100,-100,0,0,100,0.00,40.00,0,-999,0,0.00
2013-2-23,28,15,5,-100,-100,-100,0,0,100,0.00,40.00,0,-999,0,0.00
2013-2-24,14,13,11,-100,-100,-100,0,0,100,0.00,40.00,0,-999,0,0.00
2013-2-25,19,8,-2,-100,-100,-100,0,0,100,0.00,40.00,0,-999,0,0.00
2013-2-26,13,10,7,-100,-100,-100,0,0,100,0.00,40.00,0,-999,0,0.01
2013-2-27,20,8,-1,-100,-100,-100,0,0,100,0.00,40.00,0,-999,0,0.00
2013-2-28,16,12,3,-100,-100,-100,0,0,100,0.00,40.00,0,-999,0,0.00
2013-3-1,24,20,15,-100,-100,-100,0,0,100,0.00,40.00,0,-999,0,0.01
2013-3-2,33,27,23,-100,-100,-100,0,0,100,0.00,40.00,0,-999,0,0.01
2013-3-3,36,28,21,-100,-100,-100,0,0,100,0.00,40.00,0,-999,0,0.00
2013-3-4,27,20,10,-100,-100,-100,0,0,100,0.00,40.00,0,-999,0,0.02
2013-3-5,32,15,-2,-100,-100,-100,0,0,100,0.00,40.00,0,-999,0,0.01
2013-3-6,41,26,14,-100,-100,-100,0,0,100,0.00,40.00,0,-999,0,0.00
2013-3-7,42,30,20,-100,-100,-100,0,0,100,0.00,40.00,0,-999,0,0.00
2013-3-8,42,30,22,-100,-100,-100,0,0,100,0.00,40.00,0,-999,0,0.00
2013-3-9,27,22,13,-100,-100,-100,0,0,100,0.00,40.00,0,-999,0,0.03
2013-3-10,26,18,8,-100,-100,-100,0,0,100,0.00,40.00,0,-999,0,0.01
2013-3-11,25,22,16,-100,-100,-100,0,0,100,0.00,40.00,0,-999,0,0.01
2013-3-12,30,25,20,-100,-100,-100,0,0,100,0.00,40.00,0,-999,0,0.01
2013-3-13,39,30,24,-100,-100,-100,0,0,100,0.00,40.00,0,-999,0,0.00
2013-3-14,45,33,22,-100,-100,-100,0,0,100,0.00,40.00,0,-999,0,0.00
2013-3-15,48,38,27,-100,-100,-100,0,0,100,0.00,40.00,0,-999,0,0.00
2013-3-16,34,30,27,-100,-100,-100,0,0,100,0.00,40.00,0,-999,0,0.02
2013-3-17,29,23,16,-100,-100,-100,0,0,100,0.00,40.00,0,-999,0,0.01
2013-3-18,22,18,10,-100,-100,-100,0,0,100,0.00,40.00,0,-999,0,0.01
2013-3-19,32,23,8,-100,-100,-100,0,0,100,0.00,40.00,0,-999,0,0.00
2013-3-20,38,24,8,-100,-100,-100,0,0,100,0.00,40.00,0,-999,0,0.00
2013-3-21,34,23,16,-100,-100,-100,0,0,100,0.00,40.00,0,-999,0,0.02
2013-3-22,27,17,8,-100,-100,-100,0,0,100,0.00,40.00,0,-999,0,0.01
2013-3-23,12,8,5,-100,-100,-100,0,0,100,0.00,40.00,0,-999,0,0.00
2013-3-24,11,6,2,-100,-100,-100,0,0,100,0.00,40.00,0,-999,0,0.01
2013-3-25,23,12,3,-100,-100,-100,0,0,100,0.00,40.00,0,-999,0,0.00
2013-3-26,34,22,7,-100,-100,-100,0,0,100,0.00,40.00,0,-999,0,0.00
2013-3-27,38,30,24,-100,-100,-100,0,0,100,0.00,40.00,0,-999,0,0.01
2013-3-28,43,33,22,-100,-100,-100,0,0,100,0.00,40.00,0,-999,0,0.00
2013-3-29,42,32,26,-100,-100,-100,0,0,100,0.00,40.00,0,-999,0,0.00
2013-3-30,42,32,24,-100,-100,-100,0,0,100,0.00,40.00,0,-999,0,0.00
2013-3-31,47,32,17,-100,-100,-100,0,0,100,0.00,40.00,0,-999,0,0.00
2013-4-1,42,33,25,-100,-100,-100,0,0,100,0.00,40.00,0,-999,0,0.00
2013-4-2,38,27,22,-100,-100,-100,0,0,100,0.00,40.00,0,-999,0,0.00
2013-4-3,42,30,18,-100,-100,-100,0,0,100,0.00,40.00,0,-999,0,0.00
2013-4-4,47,34,24,-100,-100,-100,0,0,100,0.00,40.00,0,-999,0,0.00
2013-4-5,46,36,30,-100,-100,-100,0,0,100,0.00,40.00,0,-999,0,0.02
2013-4-6,40,33,25,-100,-100,-100,0,0,100,0.00,40.00,0,-999,0,0.01
2013-4-7,34,30,27,-100,-100,-100,0,0,100,0.00,40.00,0,-999,0,0.01
2013-4-8,43,32,25,-100,-100,-100,0,0,100,0.00,40.00,0,-999,0,0.01
2013-4-9,24,17,11,-100,-100,-100,0,0,100,0.00,40.00,0,-999,0,0.00
2013-4-10,26,14,5,-100,-100,-100,0,0,100,0.00,40.00,0,-999,0,0.00
2013-4-11,29,25,19,-100,-100,-100,0,0,100,0.00,40.00,0,-999,0,0.02
2013-4-12,34,27,19,-100,-100,-100,0,0,100,0.00,40.00,0,-999,0,0.01
2013-4-13,41,30,19,-100,-100,-100,0,0,100,0.00,40.00,0,-999,0,0.00
2013-4-14,23,21,17,-100,-100,-100,0,0,100,0.00,40.00,0,-999,0,0.04
2013-4-15,28,25,22,-100,-100,-100,0,0,100,0.00,40.00,0,-999,0,0.04
2013-4-16,35,28,23,-100,-100,-100,0,0,100,0.00,40.00,0,-999,0,0.01
2013-4-17,26,20,8,-100,-100,-100,0,0,100,0.00,40.00,0,-999,0,0.01
2013-4-18,18,10,3,-100,-100,-100,0,0,100,0.00,40.00,0,-999,0,0.01
2013-4-19,29,22,13,-100,-100,-100,0,0,100,0.00,40.00,0,-999,0,0.01
2013-4-20,35,28,23,-100,-100,-100,0,0,100,0.00,40.00,0,-999,0,0.02
2013-4-21,38,30,24,-100,-100,-100,0,0,100,0.00,40.00,0,-999,0,0.01
2013-4-22,34,28,23,-100,-100,-100,0,0,100,0.00,40.00,0,-999,0,0.02
2013-4-23,23,21,17,-100,-100,-100,0,0,100,0.00,40.00,0,-999,0,0.03
2013-4-24,32,25,14,-100,-100,-100,0,0,100,0.00,40.00,0,-999,0,0.00
2013-4-25,46,31,13,-100,-100,-100,0,0,100,0.00,40.00,0,-999,0,0.00
2013-4-26,45,38,24,-100,-100,-100,0,0,100,0.00,40.00,0,-999,0,0.00
2013-4-27,49,35,24,-100,-100,-100,0,0,100,0.00,40.00,0,-999,0,0.00
2013-4-28,53,41,28,-100,-100,-100,0,0,100,0.00,40.00,0,-999,0,0.00
2013-4-29,53,46,34,-100,-100,-100,0,0,100,0.00,40.00,0,-999,0,0.00
2013-4-30,52,40,35,-100,-100,-100,0,0,100,0.00,40.00,0,-999,0,0.00
2013-5-1,30,24,18,-100,-100,-100,0,0,100,0.00,40.00,0,-999,0,0.03
2013-5-2,28,19,13,-100,-100,-100,0,0,100,0.00,40.00,0,-999,0,0.01
2013-5-3,43,31,13,-100,-100,-100,0,0,100,0.00,40.00,0,-999,0,0.00
2013-5-4,38,31,23,-100,-100,-100,0,0,100,0.00,40.00,0,-999,0,0.00
2013-5-5,45,36,29,-100,-100,-100,0,0,100,0.00,40.00,0,-999,0,0.00
2013-5-6,46,37,32,-100,-100,-100,0,0,100,0.00,40.00,0,-999,0,0.00
2013-5-7,44,35,32,-100,-100,-100,0,0,100,0.00,40.00,0,-999,0,0.00
2013-5-8,39,34,28,-100,-100,-100,0,0,100,0.00,40.00,0,-999,0,0.02
2013-5-9,36,33,31,-100,-100,-100,0,0,100,0.00,40.00,0,-999,0,0.04
2013-5-10,43,32,24,-100,-100,-100,0,0,100,0.00,40.00,0,-999,0,0.00
2013-5-11,47,35,27,-100,-100,-100,0,0,100,0.00,40.00,0,-999,0,0.00
2013-5-12,54,42,32,-100,-100,-100,0,0,100,0.00,40.00,0,-999,0,0.00
2013-5-13,59,46,35,-100,-100,-100,0,0,100,0.00,40.00,0,-999,0,0.00
2013-5-14,60,45,36,-100,-100,-100,0,0,100,0.00,40.00,0,-999,0,0.00
2013-5-15,54,41,35,-100,-100,-100,0,0,100,0.00,40.00,0,-999,0,0.01
2013-5-16,57,44,34,-100,-100,-100,0,0,100,0.00,40.00,0,-999,0,0.01
2013-5-17,59,45,35,-100,-100,-100,0,0,100,0.00,40.00,0,-999,0,0.00
2013-5-18,48,39,33,-100,-100,-100,0,0,100,0.00,40.00,0,-999,0,0.01
2013-5-19,37,33,31,-100,-100,-100,0,0,100,0.00,40.00,0,-999,0,0.02
2013-5-20,40,35,31,-100,-100,-100,0,0,100,0.00,40.00,0,-999,0,0.02
2013-5-21,41,37,29,-100,-100,-100,0,0,100,0.00,40.00,0,-999,0,0.01
2013-5-22,52,41,31,-100,-100,-100,0,0,100,0.00,40.00,0,-999,0,0.00
2013-5-23,58,47,38,-100,-100,-100,0,0,100,0.00,40.00,0,-999,0,0.00
2013-5-24,58,45,35,-100,-100,-100,0,0,100,0.00,40.00,0,-999,0,0.00
2013-5-25,59,45,35,-100,-100,-100,0,0,100,0.00,40.00,0,-999,0,0.00
2013-5-26,59,46,36,-100,-100,-100,0,0,100,0.00,40.00,0,-999,0,0.00
2013-5-27,55,43,33,-100,-100,-100,0,0,100,0.00,40.00,0,-999,0,0.00
2013-5-28,54,43,33,-100,-100,-100,0,0,100,0.00,40.00,0,-999,0,0.00
2013-5-29,40,35,32,-100,-100,-100,0,0,100,0.00,40.00,0,-999,0,0.01
2013-5-30,44,36,31,-100,-100,-100,0,0,100,0.00,40.00,0,-999,0,0.01
2013-5-31,45,38,32,-100,-100,-100,0,0,100,0.00,40.00,0,-999,0,0.00
2013-6-1,49,39,32,-100,-100,-100,0,0,100,0.00,40.00,0,-999,0,0.00
2013-6-2,61,44,32,-100,-100,-100,0,0,100,0.00,40.00,0,-999,0,0.00
2013-6-3,59,48,37,-100,-100,-100,0,0,100,0.00,40.00,0,-999,0,0.00
2013-6-4,57,45,34,-100,-100,-100,0,0,100,0.00,40.00,0,-999,0,0.00
2013-6-5,57,44,35,-100,-100,-100,0,0,100,0.00,40.00,0,-999,0,0.00
2013-6-6,57,45,33,-100,-100,-100,0,0,100,0.00,40.00,0,-999,0,0.00
2013-6-7,55,44,36,-100,-100,-100,0,0,100,0.00,40.00,0,-999,0,0.00
2013-6-8,58,48,41,-100,-100,-100,0,0,100,0.00,40.00,0,-999,0,0.00
2013-6-9,66,49,37,-100,-100,-100,0,0,100,0.00,40.00,0,-999,0,0.00
2013-6-10,69,53,41,-100,-100,-100,0,0,100,0.00,40.00,0,-999,0,0.00
2013-6-11,65,54,41,-100,-100,-100,0,0,100,0.00,40.00,0,-999,0,0.00
2013-6-12,69,66,62,-100,-100,-100,0,0,100,0.00,40.00,0,-999,0,0.00
2013-6-13,64,60,42,-100,-100,-100,0,0,100,0.00,40.00,0,-999,0,0.00
2013-6-14,66,55,45,-100,-100,-100,0,0,100,0.00,40.00,0,-999,0,0.00
2013-6-15,64,54,38,-100,-100,-100,0,0,100,0.00,40.00,0,-999,0,0.00
2013-6-16,58,49,39,-100,-100,-100,0,0,100,0.00,40.00,0,-999,0,0.00
2013-6-17,60,54,43,-100,-100,-100,0,0,100,0.00,40.00,0,-999,0,0.00
2013-6-18,65,57,40,-100,-100,-100,0,0,100,0.00,40.00,0,-999,0,0.00
2013-6-19,68,61,42,-100,-100,-100,0,0,100,0.00,40.00,0,-999,0,0.00
2013-6-20,67,55,42,-100,-100,-100,0,0,100,0.00,40.00,0,-999,0,0.00
2013-6-22,62,60,56,-100,-100,-100,0,0,100,0.00,40.00,0,-999,0,0.00
2013-6-23,62,53,36,-100,-100,-100,0,0,100,0.00,40.00,0,-999,0,0.00
2013-6-24,63,59,49,-100,-100,-100,0,0,100,0.00,40.00,0,-999,0,0.00
2013-6-25,63,53,45,-100,-100,-100,0,0,100,0.00,40.00,0,-999,0,0.00
2013-6-26,70,58,41,-100,-100,-100,0,0,100,0.00,40.00,0,-999,0,0.00
2013-6-27,73,66,54,-100,-100,-100,0,0,100,0.00,40.00,0,-999,0,0.00
2013-6-28,74,63,50,-100,-100,-100,0,0,100,0.00,40.00,0,-999,0,0.00
2013-6-29,64,57,47,-100,-100,-100,0,0,100,0.00,40.00,0,-999,0,0.00
2013-6-30,60,50,42,-100,-100,-100,0,0,100,0.00,40.00,0,-999,0,0.00
2013-7-1,58,50,38,-100,-100,-100,0,0,100,0.00,40.00,0,-999,0,0.01
2013-7-2,62,51,39,-100,-100,-100,0,0,100,0.00,40.00,0,-999,0,0.00
2013-7-3,64,52,39,-100,-100,-100,0,0,100,0.00,40.00,0,-999,0,0.00
2013-7-4,64,53,40,-100,-100,-100,0,0,100,0.00,40.00,0,-999,0,0.00
2013-7-5,59,51,46,-100,-100,-100,0,0,100,0.00,40.00,0,-999,0,0.01
2013-7-6,63,53,45,-100,-100,-100,0,0,100,0.00,40.00,0,-999,0,0.01
2013-7-7,65,57,47,-100,-100,-100,0,0,100,0.00,40.00,0,-999,0,0.00
2013-7-8,67,53,43,-100,-100,-100,0,0,100,0.00,40.00,0,-999,0,0.00
2013-7-9,66,55,46,-100,-100,-100,0,0,100,0.00,40.00,0,-999,0,0.00
2013-7-10,69,58,49,-100,-100,-100,0,0,100,0.00,40.00,0,-999,0,0.00
2013-7-11,75,63,48,-100,-100,-100,0,0,100,0.00,40.00,0,-999,0,0.00
2013-7-12,65,54,47,-100,-100,-100,0,0,100,0.00,40.00,0,-999,0,0.01
2013-7-13,67,55,48,-100,-100,-100,0,0,100,0.00,40.00,0,-999,0,0.01
2013-7-14,59,53,45,-100,-100,-100,0,0,100,0.00,40.00,0,-999,0,0.01
2013-7-15,62,51,45,-100,-100,-100,0,0,100,0.00,40.00,0,-999,0,0.00
2013-7-16,65,52,38,-100,-100,-100,0,0,100,0.00,40.00,0,-999,0,0.00
2013-7-17,65,53,45,-100,-100,-100,0,0,100,0.00,40.00,0,-999,0,0.02
2013-7-18,60,57,52,-100,-100,-100,0,0,100,0.00,40.00,0,-999,0,0.00
2013-7-19,64,54,47,-100,-100,-100,0,0,100,0.00,40.00,0,-999,0,0.00
2013-7-20,69,55,43,-100,-100,-100,0,0,100,0.00,40.00,0,-999,0,0.00
2013-7-21,67,61,47,-100,-100,-100,0,0,100,0.00,40.00,0,-999,0,0.00
2013-7-22,71,61,47,-100,-100,-100,0,0,100,0.00,40.00,0,-999,0,0.00
2013-7-23,73,60,45,-100,-100,-100,0,0,100,0.00,40.00,0,-999,0,0.00
2013-7-24,67,55,49,-100,-100,-100,0,0,100,0.00,40.00,0,-999,0,0.00
2013-7-25,58,49,43,-100,-100,-100,0,0,100,0.00,40.00,0,-999,0,0.02
2013-7-26,65,54,41,-100,-100,-100,0,0,100,0.00,40.00,0,-999,0,0.00
2013-7-27,63,56,44,-100,-100,-100,0,0,100,0.00,40.00,0,-999,0,0.02
2013-7-28,55,48,46,-100,-100,-100,0,0,100,0.00,40.00,0,-999,0,0.01
2013-7-29,53,48,44,-100,-100,-100,0,0,100,0.00,40.00,0,-999,0,0.01
2013-7-30,59,52,44,-100,-100,-100,0,0,100,0.00,40.00,0,-999,0,0.00
2013-7-31,65,55,42,-100,-100,-100,0,0,100,0.00,40.00,0,-999,0,0.00
2013-8-1,62,53,45,-100,-100,-100,0,0,100,0.00,40.00,0,-999,0,0.00
2013-8-2,64,55,44,-100,-100,-100,0,0,100,0.00,40.00,0,-999,0,0.00
2013-8-3,67,54,47,-100,-100,-100,0,0,100,0.00,40.00,0,-999,0,0.00
2013-8-4,65,53,43,-100,-100,-100,0,0,100,0.00,40.00,0,-999,0,0.00
2013-8-5,64,50,42,-100,-100,-100,0,0,100,0.00,40.00,0,-999,0,0.01
2013-8-6,61,52,42,-100,-100,-100,0,0,100,0.00,40.00,0,-999,0,0.00
2013-8-7,56,48,43,-100,-100,-100,0,0,100,0.00,40.00,0,-999,0,0.00
2013-8-8,51,45,40,-100,-100,-100,0,0,100,0.00,40.00,0,-999,0,0.00
2013-8-9,55,46,40,-100,-100,-100,0,0,100,0.00,40.00,0,-999,0,0.00
2013-8-10,63,52,38,-100,-100,-100,0,0,100,0.00,40.00,0,-999,0,0.00
2013-8-11,63,51,44,-100,-100,-100,0,0,100,0.00,40.00,0,-999,0,0.00
2013-8-12,60,52,42,-100,-100,-100,0,0,100,0.00,40.00,0,-999,0,0.00
2013-8-13,55,45,39,-100,-100,-100,0,0,100,0.00,40.00,0,-999,0,0.01
2013-8-14,60,49,38,-100,-100,-100,0,0,100,0.00,40.00,0,-999,0,0.01
2013-8-15,65,56,40,-100,-100,-100,0,0,100,0.00,40.00,0,-999,0,0.00
2013-8-16,68,62,49,-100,-100,-100,0,0,100,0.00,40.00,0,-999,0,0.00
2013-8-17,70,61,46,-100,-100,-100,0,0,100,0.00,40.00,0,-999,0,0.00
2013-8-18,63,58,47,-100,-100,-100,0,0,100,0.00,40.00,0,-999,0,0.00
2013-8-19,70,58,43,-100,-100,-100,0,0,100,0.00,40.00,0,-999,0,1.11
2013-8-20,68,60,51,-100,-100,-100,0,0,100,0.00,40.00,0,-999,0,0.00
2013-8-21,70,56,43,-100,-100,-100,0,0,100,0.00,40.00,0,-999,0,0.00
2013-8-22,58,50,47,-100,-100,-100,0,0,100,0.00,40.00,0,-999,0,0.01
2013-8-23,63,52,43,-100,-100,-100,0,0,100,0.00,40.00,0,-999,0,0.01
2013-8-25,57,50,43,-100,-100,-100,0,0,100,0.00,40.00,0,-999,0,0.01
2013-8-26,60,52,46,-100,-100,-100,0,0,100,0.00,40.00,0,-999,0,0.00
2013-8-27,45,44,44,-100,-100,-100,0,0,100,0.00,40.00,0,-999,0,0.00
2013-8-28,65,57,47,-100,-100,-100,0,0,100,0.00,40.00,0,-999,0,0.04
2013-8-29,66,50,44,-100,-100,-100,0,0,100,0.00,40.00,0,-999,0,0.01
2013-8-30,63,53,45,-100,-100,-100,0,0,100,0.00,40.00,0,-999,0,0.01
2013-8-31,60,49,43,-100,-100,-100,0,0,100,0.00,40.00,0,-999,0,0.00
2013-9-1,61,53,45,-100,-100,-100,0,0,100,0.00,40.00,0,-999,0,0.00
2013-9-2,65,54,45,-100,-100,-100,0,0,100,0.00,40.00,0,-999,0,0.00
2013-9-3,65,55,45,-100,-100,-100,0,0,100,0.00,40.00,0,-999,0,0.00
2013-9-4,64,55,47,-100,-100,-100,0,0,100,0.00,40.00,0,-999,0,0.00
2013-9-5,65,56,47,-100,-100,-100,0,0,100,0.00,40.00,0,-999,0,0.00
2013-9-6,64,55,47,-100,-100,-100,0,0,100,0.00,40.00,0,-999,0,0.01
2013-9-7,64,53,44,-100,-100,-100,0,0,100,0.00,40.00,0,-999,0,0.00
2013-9-8,64,54,44,-100,-100,-100,0,0,100,0.00,40.00,0,-999,0,0.00
2013-9-9,61,50,42,-100,-100,-100,0,0,100,0.00,40.00,0,-999,0,0.01
2013-9-10,55,49,44,-100,-100,-100,0,0,100,0.00,40.00,0,-999,0,0.02
2013-9-11,52,49,45,-100,-100,-100,0,0,100,0.00,40.00,0,-999,0,0.00
2013-9-12,53,49,46,-100,-100,-100,0,0,100,0.00,40.00,0,-999,0,0.01
2013-9-13,52,47,42,-100,-100,-100,0,0,100,0.00,40.00,0,-999,0,0.01
2013-9-14,52,45,40,-100,-100,-100,0,0,100,0.00,40.00,0,-999,0,0.04
2013-9-15,51,43,39,-100,-100,-100,0,0,100,0.00,40.00,0,-999,0,0.02
2013-9-16,54,43,37,-100,-100,-100,0,0,100,0.00,40.00,0,-999,0,0.00
2013-9-17,57,48,37,-100,-100,-100,0,0,100,0.00,40.00,0,-999,0,0.00
2013-9-18,42,41,38,-100,-100,-100,0,0,100,0.00,40.00,0,-999,0,0.01
2013-9-19,52,40,32,-100,-100,-100,0,0,100,0.00,40.00,0,-999,0,0.01
2013-9-20,59,44,31,-100,-100,-100,0,0,100,0.00,40.00,0,-999,0,0.00
2013-9-21,58,48,36,-100,-100,-100,0,0,100,0.00,40.00,0,-999,0,0.00
2013-9-22,52,42,34,-100,-100,-100,0,0,100,0.00,40.00,0,-999,0,0.02
2013-9-23,35,32,30,-100,-100,-100,0,0,100,0.00,40.00,0,-999,0,0.04
2013-9-24,29,28,27,-100,-100,-100,0,0,100,0.00,40.00,0,-999,0,0.02
2013-9-25,59,54,44,-100,-100,-100,0,0,100,0.00,40.00,0,-999,0,0.00
2013-9-26,57,50,41,-100,-100,-100,0,0,100,0.00,40.00,0,-999,0,0.00
2013-9-27,45,34,25,-100,-100,-100,0,0,100,0.00,40.00,0,-999,0,0.02
2013-9-28,40,28,20,-100,-100,-100,0,0,100,0.00,40.00,0,-999,0,0.01
2013-9-29,52,41,27,-100,-100,-100,0,0,100,0.00,40.00,0,-999,0,0.00
2013-9-30,57,51,39,-100,-100,-100,0,0,100,0.00,40.00,0,-999,0,0.00
2013-10-1,39,38,38,-100,-100,-100,0,0,100,0.00,40.00,0,-999,0,0.00
2013-10-2,57,46,33,-100,-100,-100,0,0,100,0.00,40.00,0,-999,0,0.00
2013-10-4,29,24,19,-100,-100,-100,0,0,100,0.00,40.00,0,-999,0,0.03
2013-10-5,30,23,17,-100,-100,-100,0,0,100,0.00,40.00,0,-999,0,0.01
2013-10-6,42,31,17,-100,-100,-100,0,0,100,0.00,40.00,0,-999,0,0.00
2013-10-7,54,39,27,-100,-100,-100,0,0,100,0.00,40.00,0,-999,0,0.00
2013-10-8,55,45,35,-100,-100,-100,0,0,100,0.00,40.00,0,-999,0,0.00
2013-10-9,50,42,32,-100,-100,-100,0,0,100,0.00,40.00,0,-999,0,0.00
2013-10-10,42,40,36,-100,-100,-100,0,0,100,0.00,40.00,0,-999,0,0.00
2013-10-11,32,30,28,-100,-100,-100,0,0,100,0.00,40.00,0,-999,0,0.01
2013-10-12,40,29,20,-100,-100,-100,0,0,100,0.00,40.00,0,-999,0,0.01
2013-10-13,48,42,34,-100,-100,-100,0,0,100,0.00,40.00,0,-999,0,0.00
2013-10-21,27,26,24,-100,-100,-100,0,0,100,0.00,40.00,0,-999,0,0.00
2013-10-22,43,39,32,-100,-100,-100,0,0,100,0.00,40.00,0,-999,0,0.00
2013-10-24,48,39,28,-100,-100,-100,0,0,100,0.00,40.00,0,-999,0,0.00
2013-10-25,37,32,28,-100,-100,-100,0,0,100,0.00,40.00,0,-999,0,0.00
2013-10-26,38,31,27,-100,-100,-100,0,0,100,0.00,40.00,0,-999,0,0.00
2013-10-27,42,33,27,-100,-100,-100,0,0,100,0.00,40.00,0,-999,0,0.00
2013-11-13,38,37,36,-100,-100,-100,0,0,100,0.00,40.00,0,-999,0,0.00
2013-11-14,32,28,23,-100,-100,-100,0,0,100,0.00,40.00,0,-999,0,0.00
2013-11-15,30,30,30,-100,-100,-100,0,0,100,0.00,40.00,0,-999,0,0.00
2013-11-16,21,20,19,-100,-100,-100,0,0,100,0.00,40.00,0,-999,0,0.00
2013-11-17,25,25,25,-100,-100,-100,0,0,100,0.00,40.00,0,-999,0,0.00
2013-11-18,34,25,20,-100,-100,-100,0,0,100,0.00,40.00,0,-999,0,0.00
2013-11-19,32,29,25,-100,-100,-100,0,0,100,0.00,40.00,0,-999,0,0.00
2013-11-20,27,26,24,-100,-100,-100,0,0,100,0.00,40.00,0,-999,0,0.00
2013-11-21,31,27,23,-100,-100,-100,0,0,100,0.00,40.00,0,-999,0,0.01
2013-11-22,20,18,17,-100,-100,-100,0,0,100,0.00,40.00,0,-999,0,0.00
2013-11-23,33,27,21,-100,-100,-100,0,0,100,0.00,40.00,0,-999,0,0.01
2013-11-24,28,26,24,-100,-100,-100,0,0,100,0.00,40.00,0,-999,0,0.01
2013-11-25,23,21,19,-100,-100,-100,0,0,100,0.00,40.00,0,-999,0,0.01
2013-11-26,26,20,16,-100,-100,-100,0,0,100,0.00,40.00,0,-999,0,0.00
2013-11-27,31,24,20,-100,-100,-100,0,0,100,0.00,40.00,0,-999,0,0.00
2013-11-28,40,24,19,-100,-100,-100,0,0,100,0.00,40.00,0,-999,0,0.00
2013-11-29,34,32,30,-100,-100,-100,0,0,100,0.00,40.00,0,-999,0,0.00
2013-11-30,29,24,18,-100,-100,-100,0,0,100,0.00,40.00,0,-999,0,0.00
2013-12-1,32,26,12,-100,-100,-100,0,0,100,0.00,40.00,0,-999,0,0.00
2013-12-2,28,27,25,-100,-100,-100,0,0,100,0.00,40.00,0,-999,0,0.00
2013-12-3,28,27,26,-100,-100,-100,0,0,100,0.00,40.00,0,-999,0,0.00
2013-12-4,10,5,-1,-100,-100,-100,0,0,100,0.00,40.00,0,-999,0,0.02
2013-12-5,7,-2,-14,-100,-100,-100,0,0,100,0.00,40.00,0,-999,0,0.01
2013-12-6,4,-3,-9,-100,-100,-100,0,0,100,0.00,40.00,0,-999,0,0.00
2013-12-7,13,6,1,-100,-100,-100,0,0,100,0.00,40.00,0,-999,0,0.00
2013-12-8,7,3,-2,-100,-100,-100,0,0,100,0.00,40.00,0,-999,0,0.01
2013-12-9,2,-4,-9,-100,-100,-100,0,0,100,0.00,40.00,0,-999,0,0.00
2013-12-10,21,14,7,-100,-100,-100,0,0,100,0.00,40.00,0,-999,0,0.00
2013-12-11,20,15,10,-100,-100,-100,0,0,100,0.00,40.00,0,-999,0,0.00
2013-12-12,13,12,11,-100,-100,-100,0,0,100,0.00,40.00,0,-999,0,0.00
2013-12-13,24,20,12,-100,-100,-100,0,0,100,0.00,40.00,0,-999,0,0.00
2013-12-14,17,14,11,-100,-100,-100,0,0,100,0.00,40.00,0,-999,0,0.00
2013-12-15,25,23,21,-100,-100,-100,0,0,100,0.00,40.00,0,-999,0,0.00
2013-12-16,34,25,22,-100,-100,-100,0,0,100,0.00,40.00,0,-999,0,0.00
2013-12-17,27,24,21,-100,-100,-100,0,0,100,0.00,40.00,0,-999,0,0.00
2013-12-19,35,29,19,-100,-100,-100,0,0,100,0.00,40.00,0,-999,0,0.00
2013-12-22,14,12,9,-100,-100,-100,0,0,100,0.00,40.00,0,-999,0,0.01
2013-12-23,14,14,13,-100,-100,-100,0,0,100,0.00,40.00,0,-999,0,0.00
2013-12-24,25,21,11,-100,-100,-100,0,0,100,0.00,40.00,0,-999,0,0.02
2013-12-25,19,10,2,-100,-100,-100,0,0,100,0.00,40.00,0,-999,0,0.01
2013-12-26,27,21,11,-100,-100,-100,0,0,100,0.00,40.00,0,-999,0,0.00
2013-12-28,26,26,26,-100,-100,-100,0,0,100,0.00,40.00,0,-999,0,0.00
2013-12-29,17,14,11,-100,-100,-100,0,0,100,0.00,40.00,0,-999,0,0.00
2013-12-30,16,16,16,-100,-100,-100,0,0,100,0.00,40.00,0,-999,0,0.00
2013-12-31,26,23,20,-100,-100,-100,0,0,100,0.00,40.00,0,-999,0,0.00
2014-1-1,23,18,11,-100,-100,-100,0,0,100,0.00,40.00,0,-999,0,0.03
2014-1-2,25,19,9,-100,-100,-100,0,0,100,0.00,40.00,0,-999,0,0.00